{"data":{"norad_id":63203,"epoch":"2026-05-25T00:36:44.204832Z","epoch_age_seconds":68851,"freshness":"FRESH","line1":"1 63203U 25048W   26145.02551163  .00010461  00000+0  38905-3 0  9993","line2":"2 63203  43.0023  14.4768 0001239 257.7127 102.3586 15.27585736 68765","mean_motion":15.27585736,"eccentricity":0.0001239,"inclination_deg":43.0023,"raan_deg":14.4768,"arg_perigee_deg":257.7127,"mean_anomaly_deg":102.3586,"bstar":0.00038905,"rev_number":6876,"period_min":94.266394747221,"perigee_km":482.18182161664,"apogee_km":483.88201927512,"semimajor_km":6861.1689204459,"source":"CELESTRAK","updated_at":"2026-05-25T13:38:19.923449Z"}}